Location: Erfurt
(50.9688°N, 11.0193°E)
Time: 23:54:08
(UTC+01:00)

ISS - Pass Details

Date: 15 November 2017
Orbit: 401 x 407 km, 51.6° (Epoch: 18 November)

Event Time Altitude Azimuth Distance (km) Brightness Sun altitude
Exits shadow 06:28:15 10° 251° (WSW) 1,436 -1.5 -10.1°
Maximum altitude 06:29:51 14° 221° (SW) 1,256 -1.6 -9.8°
Drops below altitude 10° 06:31:33 10° 189° (S) 1,449 -0.9 -9.6°
Sets 06:34:23 0° 162° (SSE) 2,303 0.6 -9.2°
